Location: Pittsburgh
(40.4410°N, 79.9960°W)
Time: 00:55:11
(UTC-04:00)

BlueWalker 3 - Pass Details

Date: 20 March 2026
Orbit: 449 x 457 km, 53.2° (Epoch: 17 April)

Event Time Altitude Azimuth Distance (km) Brightness Sun altitude
Exits shadow 06:13:57 12° 205° (SSW) 1,452 3.9 -13.9°
Drops below altitude 10° 06:14:34 10° 196° (SSW) 1,585 4.2 -13.8°
Sets 06:17:22 0° 173° (S) 2,451 5.4 -13.3°
